Wind_Speed
11 16 10 26 29 30 33 45 51 49 41 33 18 11 13 9 14 4 9 10 10 10 12 14 15 14 15 16 12 14 13 15 17 20 17 15 11 11 14 16 15 19 21 20 12 15 19 21 26
14 23 26 31 32 32 40 45 50 50 43 41 25 13 8 8 8 13 9 12 17 21 21 20 18 17 18 16 16 18 14 18 23 21 17 13 11 13 13 14 19 20 21 15 14 13 18 20 27
23 29 27 32 28 30 37 42 48 49 45 42 39 29 14 9 18 16 14 18 24 27 25 23 23 22 27 20 20 17 17 23 24 21 15 11 12 16 14 16 20 22 23 13 10 16 18 19 28
3 16 17 29 29 34 35 37 44 49 46 43 41 34 29 24 20 18 17 22 26 27 28 27 26 24 21 22 20 19 24 25 24 19 15 12 10 10 12 17 18 20 24 18 14 19 19 21 24
15 7 26 29 30 32 35 36 37 46 47 45 41 38 34 33 29 28 26 27 28 29 28 25 25 25 23 22 22 25 24 26 22 17 11 9 8 8 10 14 17 17 20 23 18 19 20 22 26
16 19 25 24 29 29 32 32 34 41 45 45 45 42 38 35 36 35 31 29 29 27 27 27 26 26 25 24 24 24 26 23 19 13 10 8 8 8 10 13 17 16 19 21 17 17 21 20 20
15 18 19 18 24 26 31 32 36 37 40 42 43 42 40 42 40 36 35 33 31 30 29 28 27 26 24 24 26 25 21 18 14 13 12 12 11 11 10 11 14 15 18 22 17 18 21 22 20
6 8 18 12 20 25 30 31 33 35 35 37 38 40 38 38 39 37 35 33 32 30 29 26 25 25 24 24 24 19 18 13 15 15 14 12 12 15 14 13 14 13 15 17 19 21 25 29 26
12 6 12 7 17 22 26 29 31 32 32 33 32 35 35 34 32 32 33 32 32 31 29 30 28 27 25 23 20 17 16 15 16 13 12 10 12 14 14 13 14 13 12 16 17 22 24 23 20
8 9 9 11 11 16 20 24 27 30 29 28 29 28 30 28 29 29 31 32 31 31 28 26 27 25 24 20 16 15 15 14 14 11 8 5 7 9 10 12 11 12 11 14 20 21 19 13 18
6 9 8 11 7 12 14 17 20 23 25 25 25 24 22 23 21 21 19 22 24 23 25 22 19 20 17 16 14 12 11 10 7 6 4 4 5 5 7 8 9 10 10 11 14 19 11 5 12
6 8 9 11 12 12 12 14 18 15 18 23 25 22 18 17 16 14 15 15 12 14 13 14 13 13 12 11 10 8 7 8 8 6 5 5 5 3 4 6 7 8 8 6 8 9 19 18 12
4 7 10 15 15 14 18 17 18 14 11 16 19 21 19 15 13 10 7 6 6 7 6 5 4 7 6 6 7 8 8 9 7 6 5 5 3 2 1 1 2 2 4 5 6 4 7 7 8
10 8 14 14 10 14 13 13 14 14 10 12 15 16 17 15 13 11 9 8 5 3 4 6 9 6 2 5 3 6 7 6 10 2 3 1 2 0 2 3 2 3 2 4 2 0 2 5 2
8 7 14 13 12 15 14 8 13 13 17 16 13 14 13 14 16 15 11 8 9 8 7 7 6 7 7 8 7 3 1 2 6 8 6 6 7 5 3 3 3 4 6 8 5 4 9 8 5
3 5 11 12 11 14 14 14 10 16 11 19 21 11 12 12 11 12 12 12 13 13 13 10 12 10 9 9 11 13 12 10 7 8 8 12 13 13 16 13 12 6 4 10 9 9 8 18 13
6 4 10 10 7 6 10 16 14 19 13 9 26 9 14 17 15 16 16 15 17 18 18 19 18 19 17 15 16 15 18 18 18 14 14 14 16 16 16 18 17 17 16 12 13 13 13 16 21
18 16 20 18 17 19 16 18 20 16 17 20 15 20 17 20 21 19 21 22 26 24 26 27 26 24 22 21 20 19 20 22 24 24 22 21 19 17 17 14 13 19 22 21 19 19 15 22 25
7 14 18 21 20 22 22 22 20 15 18 14 25 10 14 20 25 24 23 29 29 31 30 30 30 29 27 25 25 24 21 24 23 24 28 26 25 23 23 18 19 20 21 21 19 17 25 23 28
22 25 26 25 21 25 22 19 20 20 17 19 26 31 24 29 33 26 43 42 41 28 31 33 35 34 31 28 27 29 30 27 26 25 26 27 28 30 30 27 25 27 27 22 14 19 17 25 31
25 30 27 28 26 26 22 20 13 16 18 29 34 35 29 34 46 49 49 43 33 30 30 35 37 40 40 39 39 38 38 38 39 37 34 34 35 34 33 35 38 37 32 27 27 25 27 26 27
33 29 28 31 26 25 28 28 26 26 27 28 28 33 39 43 48 53 46 42 34 41 38 39 38 41 45 49 50 52 51 47 47 43 43 40 42 39 38 29 35 46 34 31 33 29 33 32 34
27 27 34 32 30 29 21 26 27 32 34 35 38 43 47 50 44 36 35 35 31 34 39 37 35 38 37 39 45 48 45 45 48 50 51 46 39 40 39 40 36 43 45 45 40 45 42 33 35
34 36 31 31 32 34 30 31 33 36 34 34 36 38 38 39 34 30 31 30 29 34 35 39 36 50 38 41 38 37 41 46 46 44 46 46 46 43 42 41 43 37 45 49 45 45 38 32 34
31 29 35 37 36 38 36 31 35 37 34 31 29 33 37 35 35 32 31 28 27 34 35 32 33 30 29 35 43 47 45 48 47 41 38 41 42 46 45 50 49 47 45 49 46 47 41 40 40
36 41 44 44 43 42 39 38 35 32 30 30 29 30 31 35 39 28 30 26 26 31 36 28 45 43 42 42 43 48 48 47 43 39 48 43 37 43 48 52 56 58 55 49 57 57 50 46 44
39 41 44 44 43 46 41 39 33 31 30 30 29 32 31 32 35 40 33 33 33 34 39 44 47 46 46 43 40 42 46 51 49 53 55 48 54 43 50 50 57 60 60 55 55 48 51 51 50
41 42 43 43 41 41 43 41 30 31 31 29 30 32 35 37 37 39 41 42 39 37 39 41 45 48 48 47 47 48 52 55 58 58 60 69 66 64 65 67 65 63 64 56 64 64 59 56 57
43 43 43 41 39 38 40 41 30 32 32 33 34 37 40 41 43 44 45 45 47 43 41 42 45 50 51 51 53 52 53 54 60 66 70 72 71 75 71 68 69 66 65 67 66 65 67 65 65
43 42 41 39 37 38 39 44 36 31 32 34 36 36 36 38 41 43 44 46 49 52 52 50 52 57 59 58 58 51 49 52 63 67 71 74 72 75 77 80 77 76 74 72 68 69 70 69 66
Wind_Direction
68 30 33 49 40 21 19 22 17 21 19 27 41 56 51 115 124 92 48 128 138 125 124 142 151 160 169 185 196 146 128 127 124 119 117 114 108 36 43 49 33 24 24 31 49 53 50 50 48
65 59 49 42 36 24 27 24 22 24 27 33 31 23 18 135 115 144 127 128 117 116 115 118 132 143 143 155 145 142 125 128 121 110 114 109 84 45 58 39 26 15 14 27 54 70 62 61 60
82 55 40 37 33 32 34 29 27 29 36 39 43 52 75 80 98 120 123 120 120 114 115 122 122 132 135 133 138 137 131 128 118 107 105 101 66 64 58 40 25 22 10 26 85 88 75 70 71
32 65 45 37 30 34 35 32 32 34 39 42 50 56 66 78 93 104 111 108 107 112 115 112 121 134 138 131 130 131 131 127 111 104 102 102 70 54 34 23 18 20 23 47 93 94 83 73 74
60 97 51 41 39 39 41 39 34 37 41 46 51 59 65 73 76 87 95 102 104 103 106 114 113 118 118 117 123 125 129 126 115 106 100 91 66 46 23 19 22 26 34 54 101 101 93 81 75
65 60 48 38 49 44 41 44 40 41 43 47 54 61 70 80 85 88 89 91 92 100 103 104 106 108 109 113 117 122 122 116 114 103 100 94 81 50 40 31 30 34 38 52 108 116 107 99 88
40 24 54 41 47 49 41 39 45 44 45 47 53 58 68 76 81 84 86 86 90 92 95 98 103 104 108 113 119 121 115 115 109 106 100 95 70 40 17 10 31 41 40 48 82 124 106 97 81
287 82 50 41 52 49 40 40 40 45 46 48 52 57 59 67 78 83 84 87 88 91 92 92 93 94 98 110 123 121 115 111 116 98 93 88 56 41 41 43 49 48 48 52 81 113 104 95 67
93 31 39 27 49 45 38 34 35 40 47 49 50 58 59 61 71 78 82 86 85 81 85 85 88 94 101 108 114 117 115 112 104 95 89 86 53 48 48 40 46 49 47 48 82 112 83 71 74
35 33 33 14 27 38 35 25 28 30 33 45 52 58 61 65 73 79 84 78 78 79 83 84 82 82 83 88 101 104 89 87 87 75 73 67 52 33 36 33 53 44 48 53 64 106 89 55 37
53 32 20 346 4 21 10 13 22 21 23 33 47 55 67 71 67 77 76 81 79 77 76 74 73 71 80 77 67 56 49 54 53 63 57 46 33 28 26 43 40 38 33 52 54 89 93 235 353
44 5 10 338 339 338 345 359 2 8 20 20 23 38 54 67 75 73 62 54 71 70 79 68 67 70 70 66 64 62 53 49 63 69 55 51 23 38 62 25 9 16 13 45 62 36 77 78 99
41 337 332 331 342 351 346 333 347 342 8 17 11 14 24 48 54 58 69 60 53 25 23 28 49 72 75 86 76 67 52 70 75 75 72 68 51 78 78 349 353 3 48 15 60 57 72 111 82
317 307 338 340 348 349 357 5 339 353 349 357 358 358 3 3 17 33 25 8 16 29 356 345 344 337 190 142 121 82 54 62 39 42 2 12 67 275 276 290 303 285 238 173 334 349 106 94 74
345 354 352 350 343 351 348 352 339 322 322 320 330 338 354 350 346 343 352 358 340 323 314 328 346 337 332 293 276 219 234 352 359 5 331 316 314 301 232 255 271 286 270 248 240 262 255 191 229
346 299 303 320 318 355 343 348 4 337 337 330 350 318 334 329 328 318 316 315 312 309 315 308 297 292 290 279 270 273 280 275 287 290 306 314 311 293 289 273 271 274 256 266 234 221 278 275 253
297 262 305 286 348 1 329 346 332 311 340 307 317 338 338 320 315 305 288 290 295 289 285 286 281 281 285 287 283 271 265 274 278 274 273 278 290 301 312 295 290 283 274 302 251 239 252 257 264
301 312 303 315 305 302 306 341 311 320 308 305 310 306 326 323 308 304 295 287 285 277 276 280 281 274 275 280 284 280 274 274 268 267 272 275 277 267 277 300 312 292 294 296 274 251 274 277 259
322 286 299 305 294 295 298 292 296 299 317 323 299 327 339 308 316 302 311 311 304 291 284 274 276 276 272 270 270 269 271 266 266 266 268 264 267 260 266 270 276 283 290 275 290 276 275 274 259
269 289 299 303 289 294 307 290 290 285 268 286 258 294 307 307 322 284 308 307 311 291 286 284 275 274 269 267 270 270 264 259 256 258 270 267 264 262 263 266 272 275 270 284 282 280 255 285 266
272 281 287 289 288 290 293 299 272 287 294 279 263 282 283 290 308 303 300 304 296 296 302 282 275 270 267 265 268 272 270 264 257 256 261 262 260 258 269 263 264 270 274 262 261 271 276 259 273
287 282 288 294 294 299 304 300 296 294 293 293 284 270 265 288 295 293 296 296 288 289 283 288 279 268 269 269 270 268 271 270 265 263 264 261 258 261 263 267 268 258 265 265 264 267 278 277 277
274 288 294 293 294 297 298 296 299 302 297 292 288 286 284 282 286 290 296 298 303 303 297 294 286 278 280 277 264 280 276 277 268 264 257 255 257 259 259 265 277 274 263 274 262 271 277 271 269
273 286 288 300 296 298 301 301 297 293 291 286 283 282 285 290 289 294 289 288 292 285 289 284 269 281 286 280 274 277 280 274 270 266 258 259 260 263 263 259 255 264 258 273 271 272 273 277 272
278 280 292 298 296 295 298 295 291 294 293 291 294 295 293 288 287 289 283 280 279 269 282 298 285 285 280 279 282 287 283 278 270 258 266 259 261 261 263 268 257 252 253 260 260 267 267 267 269
281 281 288 294 296 293 296 298 301 300 297 296 290 287 291 299 296 295 297 294 287 288 296 297 294 288 306 298 284 278 277 277 273 253 260 258 264 245 263 258 258 252 257 259 263 261 255 263 267
279 284 287 290 293 296 297 304 301 297 291 285 288 292 293 295 297 300 298 303 302 296 293 298 297 302 303 296 289 279 271 273 270 260 251 254 245 244 240 253 254 252 256 257 258 261 263 265 263
282 285 289 293 295 297 299 302 298 287 284 288 292 293 299 297 298 304 309 306 304 300 297 297 299 299 295 294 288 280 274 275 269 265 254 248 245 250 252 253 253 248 248 252 258 262 266 267 268
284 287 289 291 291 289 291 294 292 287 290 297 301 306 313 312 309 307 304 304 306 302 299 297 296 294 291 291 290 286 279 276 270 264 261 256 250 245 257 246 246 248 250 251 260 259 259 261 267
285 285 287 284 281 282 284 287 287 285 291 299 307 305 302 301 302 303 305 311 310 308 306 303 301 300 292 288 287 282 276 271 269 266 259 259 257 253 252 249 248 249 250 254 257 259 262 265 262
Height
11029 11027 11025 11021 11019 11016 11007 10994 10986 10978 10964 10955 10949 10948 10949 10952 10951 10953 10958 10961 10963 10963 10966 10970 10975 10980 10986 10992 10997 11000 11003 11005 11007 11010 11012 11014 11015 11014 11013 11010 11007 11004 11002 10999 10996 10997 10996 10993 10991
11031 11027 11024 11021 11019 11016 11004 10997 10990 10984 10971 10963 10954 10951 10953 10955 10955 10956 10962 10965 10965 10967 10971 10974 10978 10983 10988 10993 10998 11001 11004 11007 11010 11013 11015 11017 11018 11016 11014 11012 11009 11005 11001 10998 10997 10998 10996 10993 10992
11030 11025 11021 11020 11020 11017 11010 11002 10997 10990 10981 10972 10965 10959 10960 10964 10960 10964 10967 10970 10972 10972 10975 10979 10982 10987 10992 10996 11000 11003 11007 11010 11013 11016 11019 11020 11020 11017 11015 11013 11009 11005 11000 10997 10998 10997 10995 10992 10990
11031 11031 11029 11023 11019 11015 11013 11009 11006 11000 10991 10982 10973 10971 10969 10967 10968 10971 10975 10976 10978 10978 10981 10983 10987 10992 10995 10999 11002 11006 11009 11013 11017 11020 11022 11022 11021 11019 11016 11013 11010 11005 11001 10998 10998 10998 10996 10994 10992
11034 11035 11031 11026 11022 11024 11021 11020 11016 11009 11002 10993 10985 10980 10978 10977 10978 10979 10982 10985 10986 10985 10987 10990 10992 10996 10999 11002 11005 11009 11013 11017 11020 11024 11025 11024 11022 11020 11018 11014 11011 11008 11005 11001 10999 10999 10998 10996 10993
11038 11036 11034 11035 11030 11030 11028 11025 11022 11016 11012 11005 10996 10993 10990 10990 10989 10988 10990 10991 10991 10992 10994 10995 10997 10999 11002 11006 11009 11014 11018 11022 11025 11026 11025 11024 11023 11021 11019 11016 11013 11010 11007 11002 11001 10999 10999 10996 10990
11044 11041 11038 11041 11039 11036 11033 11030 11027 11022 11020 11015 11008 11004 11001 10998 10997 10996 10996 10997 10998 10999 11001 11003 11004 11005 11007 11011 11014 11019 11022 11025 11027 11027 11026 11025 11024 11022 11019 11017 11015 11013 11009 11005 11002 11001 11001 10999 10995
11049 11047 11045 11048 11043 11040 11038 11036 11032 11029 11028 11024 11019 11013 11010 11007 11004 11004 11003 11005 11005 11007 11008 11010 11010 11011 11013 11015 11019 11022 11025 11027 11028 11028 11027 11027 11026 11022 11020 11018 11017 11015 11013 11010 11006 11005 11005 11001 11001
11046 11050 11051 11052 11044 11043 11040 11039 11037 11035 11033 11031 11027 11023 11020 11018 11017 11015 11014 11014 11015 11016 11016 11016 11017 11017 11019 11021 11024 11026 11028 11030 11030 11029 11029 11028 11026 11023 11021 11020 11018 11016 11014 11014 11010 11009 11007 11006 11006
11045 11050 11053 11054 11047 11045 11044 11042 11040 11038 11038 11036 11033 11030 11028 11027 11027 11025 11025 11024 11023 11022 11023 11024 11025 11026 11026 11028 11029 11029 11031 11032 11031 11030 11030 11029 11027 11025 11023 11021 11019 11017 11015 11017 11015 11013 11011 11008 11005
11041 11047 11049 11052 11050 11047 11046 11045 11044 11043 11043 11041 11038 11037 11035 11034 11034 11034 11033 11032 11031 11030 11029 11030 11031 11032 11032 11032 11032 11032 11032 11033 11033 11031 11030 11029 11027 11025 11023 11021 11020 11018 11016 11018 11018 11015 11014 11009 11008
11041 11047 11049 11051 11050 11049 11046 11046 11045 11046 11046 11044 11043 11042 11040 11039 11038 11037 11038 11038 11038 11037 11036 11035 11035 11036 11037 11037 11035 11034 11034 11034 11035 11033 11031 11029 11027 11024 11022 11020 11019 11018 11017 11018 11019 11016 11017 11014 11010
11041 11048 11051 11051 11050 11047 11046 11045 11046 11046 11046 11045 11046 11044 11043 11042 11041 11041 11040 11040 11040 11040 11040 11039 11038 11039 11039 11039 11038 11036 11035 11035 11036 11035 11032 11029 11025 11023 11021 11019 11018 11017 11017 11015 11017 11016 11014 11013 11012
11048 11049 11049 11050 11048 11047 11046 11046 11046 11047 11047 11047 11046 11046 11044 11043 11042 11041 11041 11040 11040 11039 11039 11039 11039 11040 11040 11039 11039 11037 11036 11036 11037 11036 11034 11029 11025 11022 11020 11019 11018 11017 11017 11016 11014 11014 11015 11014 11009
11047 11050 11050 11049 11049 11047 11047 11045 11044 11046 11045 11045 11045 11044 11042 11040 11040 11040 11039 11038 11038 11038 11038 11037 11037 11038 11040 11041 11040 11037 11036 11035 11036 11036 11034 11031 11028 11024 11021 11019 11017 11017 11015 11015 11015 11013 11010 11013 11010
11047 11051 11049 11049 11049 11050 11046 11045 11047 11046 11045 11043 11041 11041 11040 11038 11035 11035 11035 11035 11034 11034 11036 11036 11036 11035 11036 11038 11039 11038 11036 11034 11033 11033 11033 11031 11028 11025 11022 11018 11015 11013 11013 11011 11012 11011 11011 11007 11007
11050 11050 11049 11050 11049 11049 11045 11046 11046 11042 11040 11038 11037 11033 11034 11035 11032 11030 11030 11029 11029 11029 11029 11030 11032 11032 11031 11032 11033 11034 11033 11032 11030 11028 11028 11028 11027 11024 11021 11017 11014 11011 11007 11009 11008 11006 11006 11007 11004
11045 11046 11047 11044 11045 11046 11046 11047 11043 11044 11038 11035 11032 11031 11028 11028 11028 11027 11027 11026 11024 11024 11023 11024 11024 11025 11025 11025 11026 11027 11027 11026 11024 11022 11022 11022 11022 11020 11018 11015 11012 11007 11006 11006 11003 11002 11002 11002 11000
11041 11041 11044 11042 11041 11041 11045 11039 11040 11037 11034 11033 11029 11029 11028 11024 11023 11022 11024 11023 11022 11022 11021 11020 11018 11019 11017 11018 11018 11017 11017 11017 11016 11014 11012 11013 11013 11013 11012 11012 11008 11006 11001 11001 11001 11000 10997 10996 10997
11041 11040 11038 11039 11039 11037 11036 11037 11034 11031 11032 11028 11024 11021 11024 11022 11020 11018 11017 11015 11013 11012 11015 11015 11014 11012 11009 11008 11008 11008 11008 11007 11005 11003 11001 11001 11001 11002 11004 11008 11003 11000 10997 10996 10995 10994 10990 10990 10990
11038 11038 11035 11035 11034 11032 11031 11030 11032 11027 11026 11024 11020 11019 11017 11018 11010 11008 11011 11011 11005 11003 11006 11005 11004 11001 10998 10997 10996 10996 10996 10999 10997 10994 10991 10990 10988 10990 10994 10998 10996 10992 10992 10992 10990 10988 10988 10985 10983
11030 11029 11029 11027 11030 11031 11025 11021 11021 11021 11018 11016 11016 11015 11012 11013 11009 11004 11002 11003 11000 10995 10996 10997 10989 10986 10985 10983 10984 10985 10986 10988 10992 10989 10983 10980 10979 10981 10982 10983 10985 10982 10984 10983 10982 10981 10980 10979 10977
11025 11025 11024 11022 11021 11019 11024 11017 11015 11014 11011 11007 11004 11000 10999 11003 11002 10996 10993 10990 10996 10987 10982 10981 10980 10976 10974 10971 10972 10975 10974 10977 10977 10973 10968 10965 10969 10970 10971 10972 10971 10976 10974 10972 10972 10971 10970 10970 10969
11020 11020 11016 11017 11013 11011 11016 11014 11012 11012 11009 11008 11003 10998 10990 10985 10991 10992 10988 10987 10984 10982 10971 10971 10961 10963 10963 10958 10961 10961 10962 10962 10960 10958 10957 10954 10954 10956 10957 10957 10961 10962 10960 10959 10956 10955 10956 10958 10961
11013 11012 11010 11008 11007 11005 11007 11009 11006 11003 11000 11000 10997 10991 10983 10981 10979 10986 10983 10983 10977 10968 10965 10959 10961 10960 10956 10952 10949 10946 10948 10946 10946 10948 10946 10943 10942 10944 10945 10943 10943 10946 10944 10943 10944 10945 10948 10949 10951
11007 11004 11003 11001 10997 10995 10997 10998 10995 10993 10991 10991 10991 10987 10980 10972 10968 10976 10971 10972 10967 10957 10954 10954 10948 10947 10939 10940 10941 10937 10935 10934 10930 10931 10930 10929 10929 10929 10930 10928 10927 10931 10933 10932 10932 10934 10934 10935 10937
11001 10997 10994 10993 10989 10983 10985 10986 10986 10984 10983 10983 10982 10978 10976 10969 10964 10958 10961 10960 10958 10951 10946 10940 10936 10928 10926 10928 10928 10928 10926 10920 10916 10916 10913 10912 10914 10914 10906 10906 10913 10918 10918 10917 10917 10919 10920 10923 10925
10992 10991 10987 10982 10979 10974 10970 10973 10978 10976 10975 10974 10974 10970 10965 10961 10956 10951 10947 10946 10947 10945 10937 10933 10926 10920 10917 10913 10915 10915 10912 10905 10897 10897 10895 10895 10897 10894 10895 10894 10897 10900 10901 10900 10899 10903 10904 10908 10911
10984 10981 10978 10973 10971 10968 10963 10964 10970 10966 10965 10963 10962 10959 10952 10948 10945 10941 10939 10936 10931 10933 10930 10927 10921 10914 10907 10903 10897 10897 10893 10889 10878 10877 10874 10876 10877 10878 10879 10877 10880 10884 10885 10885 10884 10887 10890 10892 10895
10975 10972 10968 10965 10963 10961 10958 10951 10958 10960 10958 10955 10953 10950 10947 10943 10938 10935 10929 10925 10918 10911 10908 10910 10907 10896 10887 10883 10882 10880 10875 10871 10862 10855 10855 10855 10858 10860 10860 10861 10863 10868 10869 10871 10871 10872 10874 10877 10880